Date String (YYYY-MM-DD hh:mm:ss) UTC,Instrument flags,absolute air pressure of the measurement (hPa),sample flow rate (lpm),inlet stack bypass flow (lpm),air temperature of the measurement (°C),ambient temperature measured by the external sensor (°C),aerosol sample conditioner tube jacket temperature (°C),OPC LED temperature (°C),internal box temperature (°C),relative humidity of the measurement (%),span deviation,mass concentration of particles derived from Lorenz-Mie calculation of OPC scattering (μg/m³),mass concentration of particles derived from Lorenz-Mie calculation of OPC scattering (μg/m³),mass concentration of particles derived from Lorenz-Mie calculation of OPC scattering (μg/m³)
DateTimeUTC,F1_M11,P_M11,Q1_M11,Q2_M11,T1_M11,T2_M11,T3_M11,T4_M11,T5_M11,U1_M11,ZSPAN_M11,X0_M11,X2_M11,X1_M11
2024-01-26 21:00:00,SystemResetWarning,0833.8,5.00,000.00,022.4,021.8,000.0,030.6,023.8,16.5,0000.0,0008.51,0004.45,0004.23
2024-01-26 21:01:00,SystemResetWarning,0833.7,5.00,000.00,022.4,021.8,000.0,030.6,023.8,16.5,0000.0,0008.57,0004.43,0004.23
2024-01-26 21:02:00,SystemResetWarning,0833.7,5.00,000.00,022.4,021.8,000.0,030.6,023.8,17.0,0000.0,0008.53,0004.42,0004.23
2024-01-26 21:03:00,SystemResetWarning,0833.7,5.00,000.00,022.4,021.8,000.0,030.6,023.8,16.8,0000.0,0008.57,0004.44,0004.24
2024-01-26 21:04:00,SystemResetWarning,0833.7,5.00,000.00,022.4,021.8,000.0,030.6,023.8,16.9,0000.0,0008.93,0004.45,0004.23
2024-01-26 21:05:00,SystemResetWarning,0833.8,5.00,000.00,022.4,021.9,000.0,030.6,023.8,16.7,0000.0,0009.40,0004.43,0004.22
2024-01-26 21:06:00,SystemResetWarning,0833.8,5.00,000.00,022.4,021.9,000.0,030.6,023.8,17.4,0000.0,0009.37,0004.43,0004.22
2024-01-26 21:07:00,SystemResetWarning,0833.8,5.00,000.00,022.4,021.9,000.0,030.6,023.9,17.7,0000.0,0009.49,0004.46,0004.24
2024-01-26 21:08:00,SystemResetWarning,0833.7,5.00,000.00,022.5,021.9,000.0,030.7,023.9,16.8,0000.0,0009.50,0004.48,0004.24
2024-01-26 21:09:00,SystemResetWarning,0833.8,5.00,000.00,022.5,021.9,000.0,030.7,023.9,16.4,0000.0,0009.10,0004.48,0004.24
2024-01-26 21:10:00,SystemResetWarning,0833.7,5.00,000.00,022.5,021.9,000.0,030.7,023.9,16.3,0000.0,0008.25,0004.48,0004.22
2024-01-26 21:11:00,SystemResetWarning,0833.8,5.00,000.00,022.5,021.9,000.0,030.7,023.9,16.2,0000.0,0008.11,0004.47,0004.20
2024-01-26 21:12:00,SystemResetWarning,0833.8,4.99,000.00,022.5,022.0,000.0,030.7,023.9,16.3,0000.0,0008.17,0004.49,0004.19
2024-01-26 21:13:00,SystemResetWarning,0833.7,5.00,000.00,022.6,022.0,000.0,030.7,024.0,16.5,0000.0,0008.16,0004.50,0004.20
2024-01-26 21:14:00,SystemResetWarning,0833.8,5.00,000.00,022.6,022.0,000.0,030.7,024.0,16.5,0000.0,0008.13,0004.49,0004.18
2024-01-26 21:15:00,SystemResetWarning,0833.7,5.00,000.00,022.6,022.0,000.0,030.7,024.0,16.4,0000.0,0008.12,0004.48,0004.18
2024-01-26 21:16:00,SystemResetWarning,0833.8,5.00,000.00,022.6,022.0,000.0,030.7,024.0,16.2,0000.0,0007.56,0004.47,0004.19
2024-01-26 21:17:00,SystemResetWarning,0833.7,5.00,000.00,022.6,022.0,000.0,030.8,024.0,16.1,0000.0,0008.03,0004.49,0004.20
2024-01-26 21:18:00,SystemResetWarning,0833.8,5.00,000.00,022.6,022.0,000.0,030.8,024.0,16.0,0000.0,0008.03,0004.48,0004.19
2024-01-26 21:19:00,SystemResetWarning,0833.8,5.00,000.00,022.6,022.0,000.0,030.8,024.0,16.0,0000.0,0008.05,0004.48,0004.19
2024-01-26 21:20:00,SystemResetWarning,0833.8,5.00,000.00,022.6,022.0,000.0,030.8,024.0,16.0,0000.0,0008.44,0004.48,0004.19
2024-01-26 21:21:00,SystemResetWarning,0833.8,5.01,000.00,022.7,022.1,000.0,030.8,024.1,15.6,0000.0,0008.38,0004.46,0004.19
2024-01-26 21:22:00,SystemResetWarning,0833.8,5.00,000.00,022.7,022.1,000.0,030.8,024.1,15.9,0000.0,0008.28,0004.45,0004.21
2024-01-26 21:23:00,SystemResetWarning,0833.8,5.00,000.00,022.7,022.1,000.0,030.8,024.1,16.2,0000.0,0008.25,0004.44,0004.21
2024-01-26 21:24:00,SystemResetWarning,0833.8,5.00,000.00,022.7,022.1,000.0,030.9,024.1,16.2,0000.0,0008.38,0004.41,0004.20
2024-01-26 21:25:00,SystemResetWarning,0833.8,5.00,000.00,022.7,022.1,000.0,030.9,024.1,16.4,0000.0,0008.47,0004.42,0004.21
2024-01-26 21:26:00,SystemResetWarning,0833.8,5.00,000.00,022.7,022.1,000.0,030.9,024.1,15.9,0000.0,0008.45,0004.43,0004.20
2024-01-26 21:27:00,SystemResetWarning,0833.8,5.00,000.00,022.7,022.1,000.0,030.9,024.1,16.2,0000.0,0008.61,0004.44,0004.19
2024-01-26 21:28:00,SystemResetWarning,0833.9,5.00,000.00,022.7,022.1,000.0,030.9,024.1,16.2,0000.0,0009.09,0004.45,0004.20
2024-01-26 21:29:00,SystemResetWarning,0833.9,5.00,000.00,022.7,022.1,000.0,030.9,024.1,15.5,0000.0,0008.92,0004.42,0004.19
2024-01-26 21:30:00,SystemResetWarning,0833.9,5.00,000.00,022.7,022.1,000.0,030.9,024.1,15.6,0000.0,0008.88,0004.41,0004.18
2024-01-26 21:31:00,SystemResetWarning,0833.9,5.00,000.00,022.8,022.2,000.0,031.0,024.1,15.4,0000.0,0008.61,0004.44,0004.18
2024-01-26 21:32:00,SystemResetWarning,0834.0,5.00,000.00,022.8,022.2,000.0,031.0,024.1,15.6,0000.0,0008.55,0004.46,0004.19
2024-01-26 21:33:00,SystemResetWarning,0833.9,5.00,000.00,022.8,022.2,000.0,031.0,024.1,15.7,0000.0,0008.60,0004.47,0004.20
2024-01-26 21:34:00,SystemResetWarning,0833.9,5.00,000.00,022.8,022.2,000.0,031.0,024.2,15.3,0000.0,0008.57,0004.50,0004.22
2024-01-26 21:35:00,SystemResetWarning,0833.9,5.00,000.00,022.8,022.2,000.0,031.0,024.2,15.3,0000.0,0009.08,0004.54,0004.25
2024-01-26 21:36:00,SystemResetWarning,0833.9,5.00,000.00,022.8,022.2,000.0,031.0,024.1,15.5,0000.0,0009.20,0004.53,0004.26
2024-01-26 21:37:00,SystemResetWarning,0833.9,5.00,000.00,022.8,022.2,000.0,031.0,024.2,15.2,0000.0,0009.04,0004.53,0004.28
2024-01-26 21:38:00,SystemResetWarning,0834.0,5.00,000.00,022.8,022.2,000.0,031.0,024.2,15.4,0000.0,0009.01,0004.54,0004.30
2024-01-26 21:39:00,SystemResetWarning,0834.0,5.00,000.00,022.8,022.2,000.0,031.0,024.2,15.7,0000.0,0008.06,0004.51,0004.29
2024-01-26 21:40:00,SystemResetWarning,0834.0,5.00,000.00,022.8,022.2,000.0,031.0,024.2,15.4,0000.0,0007.99,0004.51,0004.30
2024-01-26 21:41:00,SystemResetWarning,0834.0,5.00,000.00,022.8,022.2,000.0,031.0,024.2,15.5,0000.0,0008.02,0004.54,0004.32
2024-01-26 21:42:00,SystemResetWarning,0833.9,5.00,000.00,022.8,022.3,000.0,031.1,024.2,15.9,0000.0,0007.87,0004.50,0004.32
2024-01-26 21:43:00,SystemResetWarning,0834.0,5.00,000.00,022.9,022.3,000.0,031.1,024.3,16.1,0000.0,0007.82,0004.47,0004.30
2024-01-26 21:44:00,SystemResetWarning,0834.0,5.01,000.00,022.9,022.3,000.0,031.1,024.3,16.1,0000.0,0007.82,0004.46,0004.29
2024-01-26 21:45:00,SystemResetWarning,0834.0,5.00,000.00,022.9,022.3,000.0,031.1,024.3,16.3,0000.0,0007.83,0004.43,0004.27
2024-01-26 21:46:00,SystemResetWarning,0834.0,5.00,000.00,022.9,022.3,000.0,031.1,024.3,16.3,0000.0,0006.99,0004.42,0004.24
2024-01-26 21:47:00,SystemResetWarning,0834.0,5.00,000.00,022.9,022.4,000.0,031.1,024.3,15.4,0000.0,0006.56,0004.42,0004.23
2024-01-26 21:48:00,SystemResetWarning,0834.0,4.99,000.00,022.9,022.4,000.0,031.1,024.3,15.6,0000.0,0006.90,0004.42,0004.22
2024-01-26 21:49:00,SystemResetWarning,0834.0,5.00,000.00,022.9,022.4,000.0,031.1,024.3,15.8,0000.0,0007.54,0004.42,0004.21
2024-01-26 21:50:00,SystemResetWarning,0834.0,5.00,000.00,023.0,022.4,000.0,031.2,024.4,15.7,0000.0,0007.55,0004.41,0004.20
2024-01-26 21:51:00,SystemResetWarning,0834.1,5.00,000.00,023.0,022.4,000.0,031.2,024.4,16.0,0000.0,0007.57,0004.41,0004.19
2024-01-26 21:52:00,SystemResetWarning,0834.1,5.00,000.00,023.0,022.4,000.0,031.2,024.4,16.1,0000.0,0008.05,0004.44,0004.20
2024-01-26 21:53:00,SystemResetWarning,0834.0,5.00,000.00,023.0,022.4,000.0,031.2,024.4,16.1,0000.0,0008.31,0004.41,0004.16
2024-01-26 21:54:00,SystemResetWarning,0834.1,5.00,000.00,023.0,022.4,000.0,031.2,024.4,16.1,0000.0,0008.21,0004.34,0004.09
2024-01-26 21:55:00,SystemResetWarning,0834.1,4.99,000.00,023.0,022.4,000.0,031.2,024.4,16.0,0000.0,0008.08,0004.27,0004.04
2024-01-26 21:56:00,SystemResetWarning,0834.1,5.01,000.00,023.0,022.5,000.0,031.2,024.5,15.9,0000.0,0007.93,0004.20,0003.98
2024-01-26 21:57:00,SystemResetWarning,0834.1,5.01,000.00,023.0,022.5,000.0,031.2,024.5,16.0,0000.0,0007.86,0004.15,0003.94
2024-01-26 21:58:00,SystemResetWarning,0834.0,4.99,000.00,023.1,022.5,000.0,031.3,024.5,15.6,0000.0,0007.81,0004.10,0003.89
2024-01-26 21:59:00,SystemResetWarning,0834.0,4.99,000.00,023.1,022.5,000.0,031.3,024.5,15.4,0000.0,0007.74,0004.04,0003.84
